N8QQ Weather Reports


time (UTC)temp
C
wind
direction
speed
KPH
gust
KPH
rain 1hr
cm
rain 24hr
cm
rain mn
cm
humidity
%
barometer
mb
20260505102017 13 168 0.0 1.6 0.25 0.25 0.25 97 1004.6
20260505101020 14 192 3.2 8.0 0.20 0.20 0.20 96 1004.6
20260505100046 14 200 3.2 6.4 0.10 0.10 0.10 95 1004.7
20260505095026 -17 0.0 0.0 0.05 0.05 0.05 1004.7
20260505094029 15 247 4.8 8.0 0.03 0.03 0.03 89 1004.2
20260505093032 16 206 4.8 11.3 0.00 0.00 0.00 82 1003.7
20260505092017 16 263 3.2 4.8 0.00 0.00 0.00 74 1003.5
20260505091020 16 217 0.0 4.8 0.00 0.00 0.00 70 1003.2
20260505090024 16 201 0.0 1.6 0.00 0.00 0.00 70 1002.9
20260505085026 16 0.0 0.0 0.00 0.00 0.00 69 1002.8
20260505084029 17 157 0.0 1.6 0.00 0.00 0.00 69 1002.7
20260505083032 17 134 0.0 3.2 0.00 0.00 0.00 69 1002.3
20260505082038 17 0.0 1.6 0.00 0.00 0.00 68 1002.0
20260505081020 17 171 1.6 3.2 0.00 0.00 0.00 67 1002.1
20260505080023 17 191 0.0 1.6 0.00 0.00 0.00 66 1002.3
20260505075027 17 160 1.6 9.7 0.00 0.00 0.00 65 1002.3
20260505074024 17 195 3.2 9.7 0.00 0.00 0.00 65 1002.1
20260505073015 17 213 1.6 4.8 0.00 0.00 0.00 65 1001.8
20260505072039 18 101 3.2 6.4 0.00 0.00 0.00 65 1001.8
20260505071016 18 275 3.2 9.7 0.00 0.00 0.00 64 1001.8
20260505070026 17 265 1.6 4.8 0.00 0.00 0.00 65 1001.8
20260505065028 17 197 3.2 6.4 0.00 0.00 0.00 65 1001.8
20260505064051 18 232 1.6 4.8 0.00 0.00 0.00 64 1001.8
20260505063016 18 185 3.2 9.7 0.00 0.00 0.00 64 1001.7
20260505062040 18 35 3.2 4.8 0.00 0.00 0.00 64 1001.6
20260505061023 18 90 3.2 9.7 0.00 0.00 0.00 64 1001.5
20260505060026 18 147 3.2 12.9 0.00 0.00 0.00 64 1001.5
20260505055028 18 219 1.6 6.4 0.00 0.00 0.00 64 1001.3
20260505054031 18 70 3.2 12.9 0.00 0.00 0.00 63 1001.2
20260505053017 18 218 1.6 6.4 0.00 0.00 0.00 62 1001.2
20260505052039 18 77 3.2 8.0 0.00 0.00 0.00 62 1001.2
20260505051023 18 139 1.6 4.8 0.00 0.00 0.00 62 1001.3
20260505041023 19 27 3.2 4.8 0.00 0.00 0.00 63 1001.8
20260505040021 19 78 3.2 6.4 0.00 0.00 0.00 63 1001.9
20260505035018 19 152 3.2 6.4 0.00 0.00 0.00 63 1002.0
20260505034036 18 115 1.6 4.8 0.00 0.00 0.00 65 1001.9
20260505033019 18 105 1.6 9.7 0.00 0.00 0.00 65 1001.8
20260505032042 18 146 1.6 3.2 0.00 0.00 0.00 66 1001.9
20260505031025 18 79 1.6 3.2 0.00 0.00 0.00 67 1001.7
20260505030028 18 28 0.0 3.2 0.00 0.00 0.00 67 1001.6
20260505025151 18 194 1.6 6.4 0.00 0.00 0.00 68 1001.4
20260505024016 18 32 0.0 1.6 0.00 0.00 0.00 68 1001.6
20260505023019 18 0.0 0.0 0.00 0.00 0.00 69 1001.3
20260505022023 18 233 0.0 4.8 0.00 0.00 0.00 68 1001.0
20260505021025 18 270 0.0 1.6 0.00 0.00 0.00 68 1000.9
20260505020028 18 0.0 0.0 0.00 0.00 0.00 68 1000.7
20260505015032 18 286 0.0 1.6 0.00 0.00 0.00 67 1000.7
20260505014037 18 0.0 0.0 0.00 0.00 0.00 66 1000.5
20260505013040 19 0.0 0.0 0.00 0.00 0.00 65 1000.3
20260505012023 19 157 0.0 1.6 0.00 0.00 0.00 64 1000.6
20260505011026 20 136 1.6 6.4 0.00 0.00 0.00 64 1000.6
20260505010050 20 199 0.0 4.8 0.00 0.00 0.00 62 1000.5
20260505005015 20 105 1.6 3.2 0.00 0.00 0.00 61 1000.6
20260505004023 20 0.0 0.0 0.00 0.00 0.00 60 1000.5
20260505003021 21 130 0.0 3.2 0.00 0.00 0.00 58 1000.5
20260505002019 21 215 1.6 3.2 0.00 0.00 0.00 57 1000.6
20260505001016 21 80 1.6 3.2 0.00 0.00 0.00 56 1000.7
20260505000031 22 137 0.0 1.6 0.00 0.00 0.00 55 1000.8
20260504235036 22 87 0.0 3.2 0.00 0.00 0.00 54 1000.9
20260504234031 22 96 3.2 6.4 0.00 0.00 0.00 53 1001.2
20260504233029 22 189 3.2 6.4 0.00 0.00 0.00 52 1001.3
20260504232032 23 127 3.2 8.0 0.00 0.00 0.00 51 1001.2
20260504231017 23 193 3.2 8.0 0.00 0.00 0.00 49 1001.2
20260504230019 24 180 6.4 19.3 0.00 0.00 0.00 47 1001.4
20260504225023 23 186 4.8 11.3 0.00 0.00 0.00 49 1001.4
20260504224026 24 146 4.8 12.9 0.00 0.00 0.00 49 1001.4
20260504223050 24 165 3.2 4.8 0.00 0.00 0.00 54 1001.5
20260504222054 24 86 0.0 6.4 0.00 0.00 0.00 55 1001.5
20260504221018 23 224 0.0 3.2 0.00 0.00 0.00 55 1001.5
20260504220020 23 146 0.0 1.6 0.00 0.00 0.00 54 1001.5
20260504215023 23 169 0.0 3.2 0.00 0.00 0.00 53 1001.9
20260504214027 24 180 1.6 4.8 0.00 0.00 0.00 52 1002.1
20260504213030 25 194 3.2 8.0 0.00 0.00 0.00 50 1002.3
20260504212015 25 185 1.6 4.8 0.00 0.00 0.00 51 1002.2
20260504211038 24 183 4.8 8.0 0.00 0.00 0.00 49 1002.3
20260504210021 25 242 4.8 8.0 0.00 0.00 0.00 49 1002.5
20260504205038 25 187 4.8 8.0 0.00 0.00 0.00 51 1002.5
20260504204035 24 207 4.8 9.7 0.00 0.00 0.00 53 1002.8
20260504203030 25 220 4.8 9.7 0.00 0.00 0.00 52 1003.0
20260504202016 23 157 3.2 8.0 0.00 0.00 0.00 55 1002.9
20260504201024 23 163 4.8 9.7 0.00 0.00 0.00 54 1003.1
20260504200022 -17 180 1.6 1.6 0.00 0.00 0.00 1003.2
20260504195025 24 184 3.2 6.4 0.00 0.00 0.00 54 1003.3
20260504194028 24 197 3.2 8.0 0.00 0.00 0.00 56 1003.5
20260504193052 23 161 4.8 9.7 0.00 0.00 0.00 56 1004.0
20260504192037 23 213 6.4 12.9 0.00 0.00 0.00 57 1003.9
20260504191020 22 242 0.0 4.8 0.00 0.00 0.00 61 1004.0
20260504190023 22 194 4.8 8.0 0.00 0.00 0.00 61 1004.2
20260504185026 21 210 3.2 9.7 0.00 0.00 0.00 63 1004.3
20260504184029 21 174 4.8 8.0 0.00 0.00 0.00 65 1004.3
20260504183033 21 96 1.6 4.8 0.00 0.00 0.00 64 1004.2
20260504182038 21 216 3.2 6.4 0.00 0.00 0.00 62 1003.9
20260504181021 21 177 3.2 8.0 0.00 0.00 0.00 62 1003.8
20260504180024 21 124 4.8 8.0 0.00 0.00 0.00 60 1003.8
20260504175047 22 115 1.6 4.8 0.00 0.00 0.00 60 1003.7
20260504174045 22 129 3.2 9.7 0.00 0.00 0.00 58 1003.5
20260504173016 22 104 3.2 6.4 0.00 0.00 0.00 59 1003.7
20260504172019 22 342 3.2 4.8 0.00 0.00 0.00 61 1003.6
20260504171037 21 224 3.2 6.4 0.00 0.00 0.00 62 1003.5
20260504151024 19 273 1.6 6.4 0.00 0.00 0.00 65 1004.4
20260504141024 18 181 1.6 6.4 0.00 0.00 0.00 63 1004.5